Other Public Products
Issued by NWS Grand Forks, ND

Home | Current Version | Previous Version | Text Only | Print | Product List | Glossary Off
Versions: 1 2 3 4 5 6 7 8 9 10 11 12 13 14 15 16 17 18 19 20 21 22 23 24 25 26 27 28 29 30 31 32 33 34 35 36 37 38 39 40 41 42 43 44 45 46 47 48 49 50

000
FPUS83 KFGF 241931
OPUFGF
PRAIRIE TO PINES WEATHER ROUNDUP
NATIONAL WEATHER SERVICE EASTERN NORTH DAKOTA/GRAND FORKS ND
200 PM CDT MON JUL 24 2017

 **SATELLITE DATA USED TO AUGMENT SKY COVER AT AUTOMATED STATIONS**
 *****  WEATHER ACROSS EASTERN NORTH DAKOTA  *****

CITY           SKY/WX    TMP DP  RH WIND       PRES   REMARKS
GRAND FORKS    PTSUNNY   79  66  64 S17G25    29.90F
GRAND FORKS AF FAIR      78  65  63 S20       29.90F
GRAND CITY NWS NOT AVBL
BUXTON           N/A     78  68  72 S14         N/A
DEVILS LAKE    FAIR      80  63  55 SE18G24   29.87S
FARGO          MOSUNNY   81  62  52 S17G26      N/A
WAHPETON ARPT  FAIR      75  61  60 S12       29.96S
$$

 *****  WEATHER ACROSS CENTRAL AND WESTERN NORTH DAKOTA  *****

CITY           SKY/WX    TMP DP  RH WIND       PRES   REMARKS
JAMESTOWN      FAIR      77  63  61 SE18      29.88F
BISMARCK       FAIR      87  62  43 S13       29.82F
MINOT          FAIR      94  56  27 S21G26    29.75F HX  92
MINOT AFB      FAIR      92  58  31 S16       29.73F HX  90
GARRISON         N/A     90  59  35 S17       29.79F
WILLISTON      FAIR      94  53  25 VRB7      29.75F HX  91
DICKINSON      FAIR      93  55  27 S15       29.79F HX  91
HETTINGER      FAIR      90  57  32 SE12      29.84F
$$

 *****  OTHER OBSERVATIONS NORTHEAST NORTH DAKOTA  *****

CITY           SKY/WX    TMP DP  RH WIND       PRES   REMARKS
WALHALLA       NOT AVBL
LANGDON        FAIR      82  66  57 S18       29.86F
CAVALIER       FAIR      79  66  65 S16       29.86S
GRAFTON        FAIR      79  64  61 S20G28    29.90S
CANDO          NOT AVBL
FORT TOTTEN      N/A     79  62  56 S14       29.95S
ROLLA            N/A     79  64  61 S21G28    29.83F
RUGBY          NOT AVBL
 ***** THE ABOVE OBSERVATIONS ARE NON NWS ARE NOT QUALITY
        CONTROLLED AND MAY MIS-REPORT RAIN FOR SNOW...
$$

 *****  OTHER OBSERVATIONS SOUTHEAST NORTH DAKOTA *****

CITY           SKY/WX    TMP DP  RH WIND       PRES   REMARKS
COOPERSTOWN    FAIR      77  64  65 S18G26    29.90F
VALLEY CITY    FAIR      77  64  65 SE12G21   29.92F
OAKES          NOT AVBL
GWINNER        CLEAR     79  63  57 S9        29.93S
SHEYENNE NWR     N/A     80  65  59 S10       29.95S
BUFFALO          N/A     76  58  53 NE13        N/A
WYNDMERE       NOT AVBL
 ***** THE ABOVE OBSERVATIONS ARE NON NWS ARE NOT QUALITY
       CONTROLLED AND MAY MIS-REPORT RAIN FOR SNOW...
$$

  *****  WEATHER ACROSS NORTHERN MINNESOTA  *****

CITY           SKY/WX    TMP DP  RH WIND       PRES   REMARKS
FLAG ISLAND    FAIR      75  64  69 S12       29.94F
WARROAD        FAIR      77  64  65 S8        29.94F
ROSEAU         FAIR      79  66  65 S15       29.93F
HALLOCK        FAIR      79  64  61 S20       29.88F
THF RVR FALLS  FAIR      78  62  57 S16       29.95F
HALSTAD          N/A     77  66  70 S17         N/A
FOSSTON        FAIR      75  61  60 S8        29.97F
BAUDETTE       FAIR      78  57  48 S12G20    29.97F
WASKISH        PTSUNNY   79  57  47 SW7       29.98F
CROOKSTON      FAIR      77  64  65 S17       29.93F
$$
  *****  WEATHER ACROSS CENTRAL AND WEST MINNESOTA  *****

CITY           SKY/WX    TMP DP  RH WIND       PRES   REMARKS
BEMIDJI        FAIR      78  59  52 S12G17    29.99F
PARK RAPIDS    FAIR      75  57  53 SE10      30.00F
WADENA         FAIR      73  57  56 SE10      30.00S
DETROIT LAKES  FAIR      75  61  60 S12       30.00S
MOORHEAD       FAIR      77  63  61 S16       29.96S
FERGUS FALLS   FAIR      75  63  64 S12G20    29.97F
ELBOW LAKE     FAIR      75  63  66 SE10      29.99F
MORRIS MN      FAIR      79  61  53 SE13      29.97F
STAPLES        FAIR      73  57  56 S8        30.01F
WHEATON        FAIR      75  63  64 SE12G18   29.97S
$$
  *****  WEATHER ELSEWHERE ACROSS MINNESOTA  *****

CITY           SKY/WX    TMP DP  RH WIND       PRES   REMARKS
DULUTH         FAIR      71  54  54 SE10      30.06F
INTRNTL FALLS  FAIR      77  53  43 VRB5      30.00F
ELY            FAIR      75  48  38 S9        30.05F
CLOQUET        FAIR      73  48  40 S6        30.06S
BRAINERD       FAIR      72  59  63 VRB7      30.03F
HIBBING        FAIR      74  52  46 S8        30.05F
ALEXANDRIA     FAIR      74  61  63 SE8       30.03S
SAINT CLOUD    PTSUNNY   73  60  63 VRB7      30.03F
MINNEAPOLIS    PTSUNNY   75  58  55 S8        30.05F
$$

  *****  WEATHER ACROSS SOUTH DAKOTA  *****

CITY           SKY/WX    TMP DP  RH WIND       PRES   REMARKS
SIOUX FALLS    FAIR      80  65  59 S10       29.97F
BROOKINGS      FAIR      78  63  59 SE17G24   29.98S
WATERTOWN      FAIR      78  64  61 S12G18    29.98R
HURON          FAIR      83  65  54 SE13      29.91S
SISSETON         N/A     80  62  54 S13       29.94F
ABERDEEN       FAIR      77  65  66 SE15      29.89F
MITCHELL       FAIR      85  64  49 SE16G26   29.91F
PIERRE         FAIR      94  59  31 SE17G25   29.78F HX  93
MOBRIDGE       FAIR      81  67  62 E10       29.85R
RAPID CITY     FAIR      95  53  24 CALM      29.85S HX  92
$$

  *****  SOME WEATHER IN NEARBY STATES *****

CITY           SKY/WX    TMP DP  RH WIND       PRES   REMARKS
GLASGOW MT     FAIR      82  46  28 NW17      29.86S
GREAT FALLS MT FAIR      71  45  39 E7        29.95F
CHEYENNE WY    FAIR      93  29  10 W8        30.11F
SCOTTSBLUFF NE FAIR      96  39  13 W7        29.93F HX  91
OMAHA NE       FAIR      84  63  49 SE9       29.99F
DES MOINES IA  FAIR      82  60  47 VRB5      30.01S
DAVENPORT IA   CLOUDY    72  63  73 E5        30.07S
CHICAGO IL     PTSUNNY   73  56  54 N10       30.05F
EAU CLAIRE WI  FAIR      72  57  59 MISG      30.07S
LA CROSSE WI   PTSUNNY   75  60  59 CALM      30.07S
$$

  *****  SOME NATIONAL WEATHER *****

CITY           SKY/WX    TMP DP  RH WIND       PRES   REMARKS
LA GUARDIA NY  CLOUDY    67  60  78 N10G20    29.83S
RALEIGH NC     PTSUNNY   90  69  50 W9        29.91S HX  94
ATLANTA GA     PTSUNNY   91  72  53 VRB5      29.96F HX  98
NEW ORLEANS LA TSTM      72  70  93 NW10G30   30.06R VSB 1
OKLAHOMA CITY  FAIR      92  67  43 SE14      29.99S HX  95
ALBUQUERQUE NM PTSUNNY   83  55  38 VRB3      30.17F
SALT LAKE CITY PTSUNNY   92  45  19 SW5       30.00F
LOS ANGELES CA PTSUNNY   76  65  68 W12       29.92F
BOISE ID       FAIR      88  50  27 VRB5      29.91F
SEATTLE WA     FAIR      73  54  51 NW9       30.04F
$$

*** WEATHER ACROSS MANITOBA...SASKATCHEWAN AND ONTARIO ***
                ***ONTARIO***

CITY           SKY/WX    TMP DP  RH WIND       PRES   REMARKS
GERALDTON      PTSUNNY   81  52  36 W5        30.00S
THUNDER BAY    MOSUNNY   81  54  39 SW5       30.02F
SIOUX LOOKOUT  PTSUNNY   77  59  53 SW8G18    29.99F
TORONTO        CLOUDY    72  61  68 N18G25    29.79R
BIG TROUT LK   SUNNY     81  52  36 SW9       29.85F
PICKLE LAKE    PTSUNNY   81  54  39 SW12G21   29.94F
DRYDEN         MOSUNNY   77  55  47 SW12G17   29.99F
KENORA         PTSUNNY   75  63  64 S8G18     29.96F
$$
                *** MANITOBA***

CITY           SKY/WX    TMP DP  RH WIND       PRES   REMARKS
BRANDON        PTSUNNY   84  66  54 S16G24    29.73F
DAUPHIN        SUNNY     84  66  54 SW15G23   29.65F
ISLAND LAKE    LGT RAIN  79  61  53 SW10G20   29.78F
PILOT MOUND      N/A     79  66  65 S18G24      N/A
THE PAS        PTSUNNY   77  64  65 SE21G29   29.53F
THOMPSON       LGT RAIN  72  64  78 E3        29.70F
WINNIPEG       MOSUNNY   79  66  65 S21G31    29.83F
LYNN LAKE      LGT RAIN  68  63  83 E9        29.66F
CHURCHILL      PTSUNNY   57  46  67 NE12      29.86S
GILLAM         CLOUDY    75  61  60 NE8       29.74F
$$
                ***SASKATCHEWAN***

CITY           SKY/WX    TMP DP  RH WIND       PRES   REMARKS
ESTEVAN        PTSUNNY   84  59  42 NW23      29.76S
KINDERSLEY     PTSUNNY   70  43  37 W21G28    29.79F
LLOYDMINSTER   LGT RAIN  50  48  93 W23G31    29.66F
PRINCE ALBERT  MOSUNNY   68  55  64 W17G26    29.64R
REGINA         MOSUNNY   75  50  41 W18G29    29.79S
YORKTON        SUNNY     81  63  54 W17G23    29.68R



USA.gov is the U.S. government's official web portal to all federal, state and local government web resources and services.